Tracking 18980 objects as of 22-Feb-2018
HD Live streaming from Space Station
objects crossing your sky now

FENGYUN 1C DEB

Track FENGYUN 1C DEB now!
10-day predictions


NORAD ID: 31088
Int'l Code: 1999-025BGJ
Perigee: 833.3 km
Apogee: 885.1 km
Inclination: 99.4 °
Period: 102.0 minutes
Semi major axis: 7230 km
RCS: 0.009 m2 (small)
Launch date: May 10, 1999
Source: People's Republic of China (PRC)
Launch site: Taiyaun Space Center, China (TSC)

Note: This is SATELLITE DEBRIS
aabbcc
Your satellite tracking list
Your tracking list is empty




NASA's NSSDC Master Catalog

Two Line Element Set (TLE):
1 31088U 99025BGJ 18052.56465206  .00000519  00000-0  30736-3 0  9992
2 31088  99.4490 268.6042 0035838 130.7643 283.9629 14.12144018561856
Source of the keplerian elements: AFSPC